Timeline UpdatesTrip UpdatesNews PostsPvt Posts♥♥Travel TipsAdmin PostsConv PostsFollowed PostsChat RequestsBlog PostsPNR Posts

Disclaimer
Search
 
 
Sat Oct 25, 2014 14:14:58 ISTHomeTrainsΣChainsAtlasPNRForumGalleryNewsFAQTripsMembersLoginFeedback
No Recent News for this Train
Other Trains in the News **new
Latest...
-
Tue Aug 05, 2014 (01:25PM)
⇐ Return Journey: Train# 16508

16507/Bhagat Ki Kothi - Bangalore Express

Time-Table HAS CHANGED.
Sep 01 2014 (11:39PM)
Change Departure Station:
Change Arrival Station:
Post a Train Travel TipPost a Train Travel Tip **new
Post a Comment/Question/Picture/VideoPost a Comment/Question/Picture/Video
Pantry/Catering
✓ Pantry Car Avbl
✓ Catering Avbl
RSA - Rake Sharing
Rake/Coach Composition
SLR-2; UR-3; SL-12; 3A-3; 2A-2 ;PC.total 23 coaches.Permanent 3AC from April 11 ex-Jodhpur.
Loco
Wdp-4 hubli shed
News    PNR    Forum    Time-Table    Availability    Fare Chart    Map    Arr/Dep History    Trips    Gallery    ΣChains    X/O    Timeline    
Travel Time: 8h 45m    8 halts    Distance: 446 km    Avg Speed: 50 km/hr
Type: Mail/Express
Zone: SWR/South Western
Departs @ 14:50 (Avg 3m late)
Platform# 7
    T S
Ahmedabad Junction/ADI 
Arrives @ 23:35 (Avg on time)
Platform# 7
    T S
Vasai Road/BSR 

8 halts. 82 intermediate Stations between Ahmedabad Junction and Vasai Road

Show ALL intermediate Stations  Show Old Time-Table

#TrkCodeStation NameX/OArrivesAvgDepartsAvgHaltPFDay#KmSpeedElevZoneAddress
1|==|BGKTBhagat Ki Kothi (3)  -05:40 05:35+0--1-456.449229mNWRJodhpur, Rajasthan
2|=-|LUNILuni Junction (3)  06:10+606:13+73m--1-428.163180mNWRLuni, Rajasthan
3|--|PMYPali Marwar (2)  06:41 06:52+1006:43 06:54+112m--1-386.938221mNWRPali, Rajasthan
4|--|MJMarwar Junction (4)  07:36 07:43+307:45+59 2m31-356.080267mNWRMarwar Junction, Rajasthan
5|--|FAFalna (2)  08:34 08:35+1308:36 08:37+142m11-289.565282mNWRFalna, Rajasthan
6|--|JWBJawai Bandh  08:51 08:52+1508:53 08:54+152m--1-273.369292mNWRPali, Rajasthan
7!==!ABRAbu Road (3)X  10:06+1810:25+1519m--1-190.638264mNWRSirohi Dist, Rajasthan
8!=-|PNUPalanpur Junction (5)X  11:48+511:50+102m11-138.063216mWRPalanpur, Gujarat
9|--|SIDSiddhpur  12:18+1212:20+122m--1-108.647136mWRState Highway 41, Gujarat
10|--|MSHMahesana Junction (6)  13:05+1513:07+212m--1-73.05395mWRMehsana, Gujarat
11/==/ADIAhmedabad Junction (12)»  14:30+514:50+320m710.05451mWRAhmedabad, Gujarat
12/==/NDNadiad Junction (4)  15:41+2315:43+242m1145.66237mWRNadiad, Gujarat
13/==/ANNDAnand Junction (6)X  16:01+2516:03+252m1164.05144mWRAnand, Gujarat
14/==/BRCVadodara Junction (7)X  16:42 16:45+3116:52 16:55+3310m1199.88536mWRVadodara 390005, Gujarat
15/==/BHBharuch Junction (5)  17:39 17:45+2817:41 17:47+222m41170.34619mWRBharuch, Gujarat
16/==/STSurat (4)X  19:05+1219:15+1110m21229.65919mWRSurat 395001, Gujarat
17/==/NVSNavsari (3)  19:45+1919:47+192m21259.26514mWRNavsari, Gujarat
18/==/BLValsad (3)X  20:23+1620:25+192m31298.36615mWRValsad, Gujarat
19/==/VAPIVapi (3)  20:49+2120:51+222m21324.54427mWRVapi, Gujarat
20/==/BSRVasai Road (7)•X  23:35+023:40+55m71445.6537mWRVasai 401202, Maharashtra
21/==/BIRDBhiwandi Road (4)X  00:11+900:13+92m22472.92126mCRBhiwandi, Maharashtra
22/==/KYNKalyan Junction (8)  01:08 01:05-301:10+62 5m62490.94810mCRKalyan 421301, Maharashtra
23/==/KJTKarjat Junction (4)  02:08+702:10+112m12537.75257mCRKarjat, Maharashtra
24/==/LNLLonavala (3)  02:58 02:43+1103:00 02:45+132m12566.445623mCRLonavala 410401, Maharashtra
25/==/PUNEPune Junction (6)X  04:10+604:20+1510m12630.051556mCRPune 411001, Maharashtra
26|--|STRSatara (3)  07:10+3007:13+333m--2775.765637mCRSatara, Maharashtra
27|--|KRDKarad (3)  08:08 08:07+3308:10+332 3m--2834.453597mCRDist- Satara., Maharashtra
28|--|SLISangli (3)X  09:27+1409:30+183m32902.37559mCRSangli, Maharashtra
29|--|MRJMiraj Junction (6)  10:30-110:35+05m12909.654554mCRMiraj 416410, Maharashtra
30|--|GPBGhatprabha (2)  12:03+3412:05+342m--2989.143621mSWRGhatprabha, Karnataka
31|--|BGMBelgaum (3)  13:25+3713:30+385m--21047.068752mSWRBelgaum 590001, Karnataka
32|--|LDLonda Junction (3)  14:15+5214:17+572m--21098.334643mSWRLonda, Karnataka
33|=-|DWRDharwad (4)X  16:20+2316:25+235m--21168.818737mSWRDharwad 580001, Karnataka
34|--|UBLHubli Junction (5)  17:30+117:40+210m121188.858640mSWRHubli - 580020, Karnataka
35|--|HVRHaveri (3)  18:50 18:58+2218:52 19:00+242m--21263.970558mSWRHaveri, Karnataka
36|--|RNRRanibennur (3)  19:26 19:28+3419:28 19:30+342m--21296.542583mSWRRanebennur, Karnataka
37|--|HRRHarihar (3)X  20:05 20:03+2520:10 20:05+285 2m--21319.843553mSWRHarihar, Karnataka
38|--|DVGDavangere (2)  20:24 20:23+2820:27 20:25+293 2m121332.667598mSWRDavanagere, Karnataka
39|==|RRBBirur Junction (3)  22:08+3322:10+332m--21447.654802mSWRBirur, Karnataka
40|==|ASKArsikere Junction (3)  23:00+2123:05+265m--21492.655816mSWRArsikere, Karnataka
41|--|TTRTiptur (4)X  23:33+3123:35+382m--21518.138860mSWRTiptur, Karnataka
42|--|TKTumkur (3)  01:28+1301:30+152m--31589.144823mSWRTumkur, Karnataka
43/==/YPRYesvantpur Junction (6)  02:55 02:58+703:00+85 2m--31653.121919mSWRBengaluru 560022, Karnataka
44/==/MWMMalleswaram (2)  03:08-03:10-2m--31655.934916mSWRBengaluru, Karnataka
45/==/SBCBangalore City Junction (10)  03:15+6-831658.7-903mSWRBengaluru-560023, Karnataka
Scroll to Top
Scroll to Bottom